World > North America > United States > Ohio

Lakeview, Ohio Regional Weather

Lat: 40.49N, Lon: 83.93W
Wx Zone: OHZ044Web Search

Our weather pages are very print friendly and they make great conversation starters.

Feedback


°F Click to change Lakeview hourly weather to Imperial units.Click to change Lakeview hourly weather to Metric units. °C
Lakeview Weather Map
UTC Time: 5/15/2021, 06:04
Your Time:

Lakeview, OH Regional Weather

Expires:202105150700;;136263
ASUS41 KCLE 150602
RWRCLE
OHIO REGIONAL WEATHER ROUNDUP
NATIONAL WEATHER SERVICE CLEVELAND, OH
200 AM EDT SAT MAY 15 2021

NOTE: "FAIR" INDICATES FEW OR NO CLOUDS BELOW 12,000 FEET WITH NO
SIGNIFICANT WEATHER AND/OR OBSTRUCTIONS TO VISIBILITY.


OHZ001>008-015>018-024>027-034-035-043-044-150700-
   NORTHWEST OHIO
  
CITY           SKY/WX    TMP DP  RH WIND       PRES   REMARKS
DEFIANCE       CLEAR     47  38  71 CALM      30.25S                  
FINDLAY        CLEAR     52  37  56 S5        30.25S                  
TOLEDO EXPRESS PTCLDY    48  34  58 CALM      30.25R                  
TOLEDO EXEC    PTCLDY    50  33  52 SW3       30.25S                  
LIMA           LGT RAIN  53  35  50 S5        30.26S                  
$$


SKY/WX - Weather  TMP - Temperature  DP - Dew Point  RH - Relative Humidity
WIND - Wind Direction/Speed PRES - Barometric Pressure VSB - Visibility
WCI - Wind Chill Index E13G22 Wind - East Wind 13 mph/Gusts of 22 mph